Owensboro, KY

4:02 PM CDT on September 20, 2017 (GMT -0500)
Owensboro-Daviess County

Weather History for KOWB - July, 2013

Change the Weather History Date:

Monday, July 8, 2013

  Actual Average Record
Temperature  
Mean Temperature 79 °F -  
Max Temperature 90 °F 91 °F 101 °F (2012)
Min Temperature 68 °F 67 °F 55 °F (1972)
Cooling Degree Days 14    
Growing Degree Days 29 (Base 50)    
Moisture  
Dew Point 72 °F    
Average Humidity 78    
Maximum Humidity 100    
Minimum Humidity 52    
Precipitation  
Precipitation 0.00 in - - ()
Sea Level Pressure  
Sea Level Pressure 30.10 in    
Wind  
Wind Speed 4 mph (SSW)    
Max Wind Speed 10 mph    
Max Gust Speed -    
Visibility 10 miles    
Events      
Averages and records for this station are not official NWS values.
T = Trace of Precipitation, MM = Missing Value Source: NWS Daily Summary

Daily Weather History Graph

Daily Weather History Graph

Search for Another Location

Airport or City:

Trip Planner

Search our weather history database for the weather conditions in past years. The results will help you decide how hot, cold, wet, or windy it might be!

Date:

Astronomy

Jul. 08, 2013 Rise Set
Actual Time 5:34 AM CDT 8:12 PM CDT
Civil Twilight 5:03 AM CDT 8:43 PM CDT
Nautical Twilight 4:25 AM CDT 9:22 PM CDT
Astronomical Twilight 3:42 AM CDT 10:05 PM CDT
Moon 6:01 AM CDT (7/8) 8:17 PM CDT (7/8)
Length of Visible Light 15h 40m
Length of Day
14h 38m
New Moon, 0% of the Moon is Illuminated
Jul 8
New Moon
Jul 15
First Quarter
Jul 22
Full
Jul 29
Last Quarter
Aug 6
New

Hourly Weather History & Observations

Time (CDT) Temp. Heat Index Dew Point Humidity Pressure Visibility Wind Dir Wind Speed Gust Speed Precip Events Conditions
12:56 AM 72.0 °F - 72.0 °F 100% 30.10 in 10.0 mi Calm Calm - N/A   Clear
1:56 AM 70.9 °F - 70.9 °F 100% 30.09 in 10.0 mi Calm Calm - N/A   Clear
2:56 AM 70.0 °F - 70.0 °F 100% 30.09 in 10.0 mi SSE 3.5 mph - N/A   Clear
3:56 AM 68.9 °F - 68.9 °F 100% 30.10 in 10.0 mi SSE 3.5 mph - N/A   Clear
4:56 AM 68.9 °F - 68.9 °F 100% 30.11 in 10.0 mi South 3.5 mph - N/A   Clear
5:56 AM 68.0 °F - 68.0 °F 100% 30.11 in 6.0 mi SSE 4.6 mph - N/A   Clear
6:56 AM 70.9 °F - 70.9 °F 100% 30.12 in 7.0 mi South 5.8 mph - N/A   Clear
7:56 AM 75.9 °F - 72.0 °F 87% 30.13 in 9.0 mi South 4.6 mph - N/A   Clear
8:56 AM 79.9 °F - 73.9 °F 82% 30.14 in 10.0 mi South 5.8 mph - N/A   Clear
9:56 AM 84.9 °F 93.3 °F 74.8 °F 72% 30.14 in 10.0 mi SW 5.8 mph - 0.00 in   Clear
10:56 AM 86.0 °F 93.8 °F 73.9 °F 67% 30.15 in 10.0 mi West 6.9 mph - N/A   Clear
11:56 AM 86.9 °F 92.5 °F 70.9 °F 59% 30.15 in 10.0 mi West 6.9 mph - N/A   Scattered Clouds
12:56 PM 88.9 °F 94.7 °F 70.9 °F 55% 30.14 in 10.0 mi SW 8.1 mph - N/A   Partly Cloudy
1:56 PM 88.9 °F 94.7 °F 70.9 °F 55% 30.12 in 10.0 mi SW 6.9 mph - N/A   Scattered Clouds
2:56 PM 90.0 °F 95.4 °F 70.0 °F 52% 30.10 in 10.0 mi SW 6.9 mph - N/A   Scattered Clouds
3:56 PM 90.0 °F 95.9 °F 70.9 °F 53% 30.09 in 10.0 mi SW 9.2 mph - 0.00 in   Partly Cloudy
4:56 PM 90.0 °F 95.4 °F 70.0 °F 52% 30.07 in 10.0 mi SSW 10.4 mph - N/A   Partly Cloudy
5:56 PM 86.0 °F 91.1 °F 70.9 °F 60% 30.05 in 10.0 mi SW 10.4 mph - N/A   Clear
6:56 PM 86.0 °F 93.8 °F 73.9 °F 67% 30.06 in 10.0 mi WSW 3.5 mph - N/A   Clear
7:56 PM 83.8 °F 90.8 °F 73.9 °F 72% 30.07 in 10.0 mi West 3.5 mph - N/A   Clear
8:56 PM 81.9 °F 87.0 °F 72.9 °F 74% 30.08 in 10.0 mi Calm Calm - N/A   Clear
9:56 PM 79.0 °F - 73.9 °F 84% 30.09 in 10.0 mi Calm Calm - N/A   Clear
10:56 PM 75.9 °F - 74.8 °F 96% 30.09 in 10.0 mi SSE 4.6 mph - 0.00 in   Clear
11:56 PM 75.9 °F - 74.8 °F 96% 30.10 in 10.0 mi Calm Calm - N/A   Clear